Wind_Speed
26 27 27 28 27 26 26 26 26 25 25 26 26 27 27 27 27 27 28 28 29 29 28 28 30 31 32 32 33 33 32 33 33 34 35 35 35 34 35 36 36 37 38
25 26 26 26 27 27 26 26 26 25 25 26 26 27 27 28 28 28 28 27 27 27 28 28 29 30 30 31 32 32 32 33 33 33 33 34 34 35 35 36 37 38 39
24 24 24 24 24 25 25 25 25 25 26 26 26 27 28 28 28 28 28 28 28 27 28 28 29 29 30 31 31 31 31 31 32 33 33 33 34 34 35 36 37 38 37
22 21 21 21 21 22 22 23 24 24 25 25 25 25 26 26 27 27 28 28 28 28 28 29 29 30 29 29 29 30 30 31 32 32 32 33 33 34 36 36 37 36 35
19 19 19 19 19 19 20 21 22 22 22 23 23 23 23 24 25 26 27 27 27 27 27 27 28 29 28 29 29 30 30 31 30 30 31 32 33 34 34 35 34 34 33
19 18 17 17 17 18 18 19 19 19 20 21 21 22 22 22 23 24 24 24 24 25 25 26 27 27 27 28 28 29 29 29 30 30 31 31 32 32 32 32 32 31 31
16 16 16 16 16 16 17 17 16 16 17 18 18 18 19 19 20 21 22 22 23 23 24 24 24 24 25 26 26 28 28 28 29 29 29 30 30 30 30 30 30 29 28
15 14 14 15 15 15 14 14 15 15 16 16 16 16 16 17 17 18 19 20 20 20 21 21 22 22 23 24 25 25 26 27 28 28 28 28 27 28 27 27 26 26 25
12 12 13 13 13 13 13 12 12 12 12 12 13 14 15 15 15 16 17 17 18 18 19 20 21 21 21 22 23 24 24 25 26 26 25 25 25 25 25 24 24 23 23
10 10 10 10 11 11 11 11 11 11 10 11 11 12 12 13 14 14 15 16 17 17 17 18 19 20 20 20 21 22 22 22 23 23 23 23 23 23 23 22 22 21 20
8 8 8 8 8 8 8 8 9 9 9 9 9 10 11 11 12 13 13 14 14 14 15 15 16 17 18 19 19 20 21 20 20 20 20 21 20 20 20 19 19 17 16
7 7 7 6 6 6 6 7 7 7 7 8 8 8 8 9 9 9 10 10 11 11 12 13 14 15 16 17 18 18 18 18 18 18 18 18 17 17 16 16 15 14 13
4 4 4 5 4 4 3 3 3 3 4 4 4 5 6 6 6 6 7 8 9 10 11 12 13 13 14 14 14 15 15 15 15 15 15 15 15 14 14 13 12 11 10
4 3 3 2 2 1 1 1 1 2 1 1 1 2 2 3 4 6 6 7 8 8 9 9 10 10 10 10 11 11 11 11 12 12 12 12 12 11 10 9 8 8 7
5 5 5 4 4 4 4 4 3 3 3 2 3 3 3 4 4 5 5 5 5 6 6 7 7 7 8 8 9 9 9 9 9 10 9 9 8 7 6 6 6 5 5
7 7 7 7 7 7 7 6 6 6 5 5 5 5 5 5 5 5 5 5 5 5 5 6 6 6 7 7 7 7 7 7 7 7 6 6 5 4 4 4 4 3 3
9 9 9 9 9 8 9 8 8 8 8 8 7 7 7 7 7 7 7 7 7 7 7 7 7 8 7 7 7 7 7 6 5 5 4 4 4 3 3 2 2 2 2
12 11 11 11 11 11 10 10 10 10 10 9 9 9 9 9 9 9 9 9 9 9 9 9 9 9 9 9 8 7 7 6 5 4 4 4 4 3 3 3 2 2 2
13 13 13 13 13 12 12 12 12 11 11 11 11 11 10 10 10 10 10 10 10 10 10 10 10 10 10 9 9 8 8 7 6 5 5 5 4 4 4 3 3 3 2
14 14 14 14 14 14 14 14 13 13 13 12 12 12 12 11 11 11 11 11 11 11 11 12 11 11 11 10 10 9 8 8 7 6 6 6 5 5 5 4 4 3 3
15 15 15 15 15 15 15 15 15 15 14 14 14 14 14 13 13 12 12 12 12 12 13 13 13 12 12 11 11 10 9 9 9 8 7 7 6 6 5 5 4 4 4
15 15 15 15 16 16 16 16 16 16 16 16 16 15 15 15 14 14 14 14 14 14 14 14 14 14 13 13 12 12 11 10 9 9 8 8 7 7 6 6 5 5 5
16 16 16 16 17 17 17 17 17 16 16 16 16 16 16 15 15 15 14 14 14 14 14 15 14 14 14 14 13 13 12 11 10 9 9 8 7 7 7 7 6 7 8
17 16 16 16 16 17 16 16 16 16 16 16 16 16 16 15 15 15 14 14 14 14 14 14 14 14 14 13 13 12 12 11 11 10 9 9 9 9 8 9 9 9 10
16 16 16 16 16 16 16 15 15 15 15 15 15 15 15 15 15 15 15 14 14 14 13 13 13 13 13 13 13 12 12 12 11 11 11 10 10 10 11 11 11 12 13
16 15 15 15 15 15 15 15 14 14 14 14 14 14 14 14 14 15 15 14 14 14 14 14 14 13 13 13 13 13 13 13 12 12 12 12 12 12 13 13 14 14 15
Wind_Direction
276 274 272 270 268 268 267 263 260 257 255 253 253 253 254 254 254 254 253 253 254 254 252 251 250 249 251 254 257 259 262 262 262 264 266 269 272 273 275 277 278 279 281
278 275 273 270 267 265 264 261 259 258 256 254 254 253 254 255 255 254 253 253 252 252 251 252 253 253 254 256 259 260 261 262 265 266 269 271 272 275 276 278 280 282 285
280 277 272 268 265 262 261 259 257 256 256 254 255 255 255 255 255 255 254 253 252 252 253 254 255 256 256 258 260 262 263 264 265 267 268 271 273 275 277 279 282 284 285
283 280 273 267 264 262 261 259 258 257 256 254 255 256 257 255 254 253 253 254 254 254 256 256 256 256 256 259 261 263 264 265 267 268 270 272 274 276 278 281 283 284 286
284 281 274 267 264 262 261 258 258 257 255 255 256 255 256 254 253 253 253 254 255 255 256 257 257 256 257 259 261 263 265 268 270 271 273 275 276 278 280 282 283 284 286
282 277 271 265 264 263 261 260 259 256 254 255 255 257 257 257 255 254 254 256 256 257 258 258 259 260 259 260 262 264 266 269 271 273 275 277 278 279 281 282 283 284 286
280 274 270 267 267 266 264 260 259 256 255 256 256 257 259 259 258 256 256 255 256 258 257 258 259 260 261 262 265 267 270 271 273 275 276 278 279 280 282 283 283 285 286
281 275 274 270 269 270 267 264 259 255 255 256 256 257 258 259 258 257 257 257 256 256 257 259 262 264 267 269 271 272 273 274 275 276 277 278 280 281 282 284 285 286 287
283 278 275 269 269 269 268 265 264 261 257 256 259 258 258 258 257 258 259 259 259 261 262 265 268 269 270 271 272 273 275 277 278 279 279 280 281 282 283 284 285 286 287
283 282 281 275 273 272 271 267 266 266 263 264 263 261 262 262 264 264 264 266 267 268 269 271 272 272 273 274 276 278 279 280 282 282 282 283 283 283 284 284 285 285 285
285 284 285 284 279 275 273 268 268 268 268 268 267 267 267 268 269 271 273 275 273 273 274 275 275 276 278 279 280 282 282 282 283 284 285 285 285 284 285 285 285 285 286
293 288 289 292 288 282 277 274 274 277 274 273 275 276 274 273 273 273 275 277 279 281 281 281 282 283 284 286 286 286 285 284 285 286 286 286 286 287 287 285 284 284 283
318 309 304 304 300 294 289 292 293 292 286 281 280 282 280 283 288 289 291 290 291 290 288 288 289 289 289 289 289 289 289 289 290 290 291 290 289 288 287 285 284 283 282
12 10 359 347 351 2 11 10 6 357 345 318 304 309 317 323 320 318 316 309 305 299 296 297 299 299 299 298 298 298 298 297 296 295 294 293 291 289 286 287 286 284 283
41 48 50 56 64 63 60 60 62 57 52 44 30 23 16 4 354 347 344 338 331 327 324 322 318 316 314 312 310 308 307 304 302 301 298 296 296 296 295 294 291 289 284
58 68 73 72 70 69 68 70 71 68 64 58 54 50 43 36 31 26 21 16 12 8 1 354 348 341 336 333 330 326 322 319 318 318 318 316 315 312 309 307 303 295 286
70 72 72 71 73 75 75 75 76 73 69 64 63 60 56 53 51 48 44 40 35 30 24 17 11 6 360 355 350 346 344 344 347 352 357 358 356 350 346 343 339 331 319
75 76 76 75 77 77 77 75 73 70 68 66 64 60 58 56 55 52 48 45 40 34 28 22 18 14 11 9 8 10 13 17 21 26 26 25 25 25 23 22 19 12 10
77 77 77 77 77 77 75 73 71 70 69 67 65 62 60 58 55 51 48 44 40 36 32 28 25 22 21 21 23 26 30 32 34 35 34 34 34 33 30 24 19 18 18
79 78 78 77 76 75 73 71 71 70 69 67 65 62 59 56 53 51 49 45 42 38 36 34 32 31 29 30 32 35 38 39 41 42 41 39 36 32 27 22 18 15 11
82 81 82 80 77 75 74 73 71 70 68 67 66 64 62 59 57 54 52 49 47 44 41 39 38 37 37 38 40 43 44 45 46 44 41 38 35 32 29 23 17 11 3
83 82 82 81 79 77 75 73 71 70 69 68 66 64 62 61 58 57 56 54 51 49 46 44 44 44 43 44 45 46 45 43 41 38 35 33 31 28 22 14 5 355 346
83 82 82 82 81 79 76 73 70 69 68 67 65 63 61 60 59 57 55 53 51 49 47 46 45 45 45 44 44 43 41 38 35 32 29 25 20 13 6 357 348 340 335
83 83 82 80 79 77 75 72 69 67 66 64 62 60 59 58 57 55 53 51 49 47 45 43 42 41 40 38 37 35 32 29 25 21 16 11 6 0 354 347 339 332 328
83 82 80 79 76 74 72 69 67 65 62 60 59 57 56 55 55 53 51 49 46 43 40 38 35 32 30 29 27 25 22 18 15 10 6 1 356 350 345 341 336 331 327
83 81 79 78 75 73 70 67 65 63 61 59 57 55 53 52 50 49 47 44 41 38 35 33 30 27 24 21 18 16 13 10 6 2 358 352 347 342 337 334 331 327 325
Height
5746 5745 5744 5744 5743 5743 5743 5744 5745 5746 5747 5748 5750 5751 5753 5754 5756 5757 5759 5760 5762 5763 5765 5766 5767 5769 5770 5772 5772 5773 5773 5773 5773 5772 5772 5771 5771 5770 5769 5768 5767 5765 5763
5738 5737 5736 5736 5736 5736 5736 5737 5738 5739 5740 5741 5742 5744 5745 5746 5748 5749 5751 5752 5754 5755 5757 5758 5760 5761 5762 5763 5764 5764 5764 5764 5764 5764 5763 5763 5762 5761 5760 5759 5757 5756 5754
5730 5729 5729 5728 5728 5729 5729 5730 5731 5732 5733 5734 5735 5736 5738 5739 5740 5742 5743 5745 5746 5747 5749 5750 5752 5753 5754 5755 5756 5756 5756 5756 5756 5755 5755 5754 5753 5753 5751 5750 5748 5746 5745
5724 5723 5722 5722 5722 5722 5723 5723 5724 5725 5726 5727 5728 5729 5730 5731 5733 5734 5736 5737 5738 5740 5741 5742 5744 5745 5746 5747 5748 5748 5748 5748 5747 5747 5746 5746 5745 5744 5742 5741 5739 5737 5735
5718 5717 5716 5716 5716 5716 5717 5717 5718 5718 5719 5720 5721 5723 5724 5725 5726 5727 5729 5730 5731 5733 5734 5735 5736 5737 5738 5739 5739 5740 5739 5739 5739 5738 5738 5737 5736 5735 5734 5732 5730 5728 5727
5712 5711 5711 5711 5711 5711 5711 5712 5712 5713 5714 5715 5716 5717 5718 5718 5719 5720 5722 5723 5724 5726 5727 5728 5729 5730 5730 5731 5731 5731 5731 5731 5731 5731 5730 5729 5728 5726 5725 5723 5722 5720 5719
5707 5707 5706 5706 5707 5707 5707 5707 5707 5708 5709 5709 5710 5711 5712 5713 5714 5715 5716 5717 5718 5719 5720 5721 5722 5723 5723 5724 5724 5724 5723 5723 5723 5723 5722 5721 5719 5718 5717 5716 5714 5712 5711
5703 5703 5702 5702 5702 5702 5703 5703 5703 5703 5704 5705 5705 5706 5707 5708 5709 5709 5710 5711 5712 5713 5714 5715 5715 5716 5716 5716 5717 5716 5716 5716 5715 5715 5714 5713 5712 5710 5709 5708 5707 5705 5704
5700 5699 5698 5698 5698 5698 5699 5699 5699 5699 5700 5700 5701 5702 5703 5703 5704 5705 5706 5707 5707 5708 5708 5709 5709 5709 5710 5710 5710 5710 5709 5708 5707 5707 5706 5705 5704 5703 5702 5701 5700 5698 5697
5697 5696 5696 5696 5695 5695 5695 5696 5696 5696 5697 5697 5698 5699 5699 5700 5700 5701 5702 5702 5702 5703 5703 5703 5704 5704 5704 5704 5704 5703 5702 5702 5701 5700 5699 5698 5697 5696 5695 5694 5693 5692 5691
5695 5694 5694 5693 5693 5693 5693 5693 5694 5694 5694 5695 5695 5696 5696 5697 5697 5698 5698 5698 5698 5698 5698 5698 5699 5699 5698 5698 5698 5697 5696 5696 5695 5694 5693 5692 5691 5690 5689 5688 5687 5687 5686
5693 5692 5692 5691 5691 5691 5691 5691 5692 5692 5692 5693 5693 5694 5694 5694 5694 5695 5695 5695 5695 5695 5695 5695 5695 5694 5694 5693 5693 5692 5691 5691 5690 5689 5688 5687 5686 5685 5684 5683 5682 5682 5681
5692 5691 5691 5690 5690 5690 5690 5690 5690 5691 5691 5691 5692 5692 5692 5693 5693 5693 5693 5693 5693 5693 5692 5692 5692 5691 5690 5690 5689 5688 5687 5686 5685 5684 5683 5682 5682 5681 5680 5679 5678 5678 5677
5692 5691 5690 5690 5690 5690 5690 5690 5690 5690 5691 5691 5691 5692 5692 5692 5692 5692 5691 5691 5691 5690 5690 5689 5689 5688 5687 5686 5686 5685 5684 5683 5682 5680 5679 5679 5678 5677 5677 5676 5675 5675 5675
5692 5692 5691 5691 5691 5691 5691 5691 5691 5691 5691 5692 5692 5692 5692 5692 5692 5691 5691 5690 5690 5689 5688 5688 5687 5686 5685 5684 5683 5682 5681 5680 5679 5678 5677 5676 5675 5675 5674 5674 5673 5673 5672
5694 5693 5693 5692 5692 5692 5692 5693 5692 5693 5693 5693 5693 5693 5692 5692 5692 5691 5691 5690 5689 5689 5688 5687 5686 5685 5684 5683 5681 5680 5679 5678 5677 5676 5675 5674 5673 5673 5672 5672 5672 5671 5671
5696 5695 5695 5694 5694 5694 5695 5695 5695 5695 5695 5694 5694 5694 5694 5693 5693 5692 5692 5691 5690 5689 5688 5687 5686 5685 5683 5682 5681 5679 5678 5677 5676 5675 5674 5673 5672 5672 5672 5671 5671 5671 5670
5699 5698 5698 5697 5697 5697 5697 5697 5697 5697 5697 5696 5696 5696 5695 5695 5694 5694 5693 5692 5691 5690 5689 5688 5686 5685 5683 5682 5680 5679 5677 5676 5675 5675 5674 5673 5673 5672 5672 5671 5671 5670 5670
5702 5701 5701 5701 5700 5700 5700 5700 5700 5699 5699 5699 5698 5698 5698 5697 5696 5696 5695 5694 5693 5692 5690 5689 5687 5686 5684 5682 5681 5679 5678 5677 5676 5675 5674 5674 5673 5673 5672 5672 5671 5671 5670
5705 5705 5705 5704 5704 5704 5703 5703 5703 5702 5702 5702 5701 5701 5700 5699 5699 5698 5697 5696 5694 5693 5692 5690 5688 5687 5685 5683 5682 5680 5679 5678 5677 5676 5675 5675 5674 5673 5673 5672 5671 5671 5670
5709 5709 5708 5708 5708 5708 5707 5707 5707 5706 5705 5705 5704 5703 5703 5702 5701 5700 5699 5698 5696 5695 5693 5692 5690 5688 5687 5685 5683 5682 5680 5679 5678 5678 5677 5676 5675 5674 5673 5673 5672 5671 5670
5713 5713 5713 5712 5712 5712 5712 5711 5711 5710 5709 5708 5708 5707 5706 5705 5704 5703 5701 5700 5699 5697 5696 5694 5693 5691 5689 5687 5685 5684 5683 5682 5681 5679 5678 5677 5676 5675 5674 5673 5672 5671 5670
5718 5717 5717 5717 5716 5716 5716 5715 5715 5714 5713 5712 5711 5710 5709 5708 5707 5706 5704 5703 5702 5700 5699 5697 5695 5694 5692 5690 5688 5687 5685 5684 5683 5681 5680 5679 5677 5676 5675 5673 5672 5671 5670
5722 5722 5722 5721 5721 5720 5720 5719 5719 5718 5717 5716 5715 5714 5713 5711 5710 5709 5707 5706 5704 5703 5701 5700 5698 5696 5694 5693 5691 5689 5688 5686 5684 5683 5681 5680 5678 5676 5675 5673 5672 5670 5668
5726 5726 5726 5725 5725 5725 5724 5723 5723 5722 5721 5720 5719 5718 5716 5715 5713 5712 5710 5709 5707 5706 5704 5702 5700 5698 5696 5695 5693 5691 5689 5687 5685 5683 5682 5680 5678 5676 5674 5672 5670 5668 5666
5730 5730 5730 5729 5729 5728 5728 5727 5726 5725 5724 5723 5722 5721 5719 5718 5717 5715 5713 5712 5710 5708 5706 5704 5702 5700 5698 5696 5694 5692 5690 5688 5686 5684 5682 5679 5677 5675 5673 5671 5669 5666 5664